• En España
  • Lista de países
  • Para 7 días
  • Temperatura del agua
  • Mapa Satelital
  • El tiempo en el mapa
  • Informadores
  • user-avatar
    Iniciar sesión

    Tiempo cada hora Silistra

    Hoy, 15 Noviembre, Jueves

    Tiempo Temperatura Precipitaciones Viento Presión Humedad
    00:00 +8°C° 0.1 mm 2 mps 763 mmHg 76%
    01:00 +7°C° 0.1 mm 2 mps 763 mmHg 79%
    02:00 +5°C° 0 mm 3 mps 762 mmHg 82%
    03:00 +5°C° 0.3 mm 3 mps 762 mmHg 82%
    04:00 +6°C° 0.3 mm 2 mps 762 mmHg 83%
    05:00 +6°C° 0.3 mm 2 mps 762 mmHg 84%
    06:00 +6°C° 0.1 mm 2 mps 762 mmHg 85%
    07:00 +6°C° 0.1 mm 2 mps 762 mmHg 86%
    08:00 +5°C° 0 mm 3 mps 763 mmHg 84%
    09:00 +7°C° 0 mm 3 mps 763 mmHg 80%
    10:00 +7°C° 0 mm 4 mps 763 mmHg 76%
    11:00 +8°C° 0 mm 4 mps 763 mmHg 72%
    12:00 +8°C° 0.3 mm 4 mps 763 mmHg 72%
    13:00 +8°C° 0.3 mm 5 mps 762 mmHg 72%
    14:00 +8°C° 0 mm 5 mps 762 mmHg 73%
    15:00 +7°C° 0.1 mm 5 mps 763 mmHg 73%
    16:00 +7°C° 0.1 mm 5 mps 763 mmHg 73%
    17:00 +7°C° 0.1 mm 5 mps 763 mmHg 73%
    18:00 +6°C° 0 mm 5 mps 763 mmHg 73%
    19:00 +6°C° 0 mm 5 mps 763 mmHg 73%
    20:00 +5°C° 0 mm 4 mps 764 mmHg 74%
    21:00 +4°C° 0 mm 4 mps 764 mmHg 75%
    22:00 +4°C° 0 mm 4 mps 764 mmHg 76%
    23:00 +3°C° 0 mm 4 mps 764 mmHg 78%

    Mañana, 16 Noviembre, Viernes

    Tiempo Temperatura Precipitaciones Viento Presión Humedad
    00:00 +3°C° 0 mm 4 mps 764 mmHg 79%
    01:00 +1°C° 0 mm 4 mps 765 mmHg 80%
    02:00 +1°C° 0 mm 4 mps 765 mmHg 82%
    03:00 +1°C° 0 mm 4 mps 765 mmHg 82%
    04:00 +1°C° 0 mm 4 mps 765 mmHg 81%
    05:00 +1°C° 0 mm 4 mps 765 mmHg 81%
    06:00 +1°C° 0 mm 5 mps 765 mmHg 79%
    07:00 +1°C° 0 mm 5 mps 766 mmHg 76%
    08:00 +1°C° 0 mm 6 mps 766 mmHg 73%
    09:00 +2°C° 0.1 mm 6 mps 766 mmHg 71%
    10:00 +2°C° 0.1 mm 6 mps 766 mmHg 69%
    11:00 +2°C° 0.1 mm 6 mps 766 mmHg 66%
    12:00 +2°C° 0 mm 7 mps 767 mmHg 61%
    13:00 +2°C° 0 mm 7 mps 767 mmHg 56%
    14:00 +3°C° 0 mm 7 mps 767 mmHg 50%
    15:00 +2°C° 0 mm 7 mps 767 mmHg 55%
    16:00 0°C° 0 mm 7 mps 767 mmHg 60%
    17:00 0°C° 0 mm 7 mps 767 mmHg 65%
    18:00 -1°C° 0.1 mm 6 mps 767 mmHg 68%
    19:00 -1°C° 0.1 mm 6 mps 767 mmHg 72%
    20:00 -2°C° 0.1 mm 6 mps 767 mmHg 76%
    21:00 -2°C° 0.2 mm 6 mps 767 mmHg 77%
    22:00 -1°C° 0.2 mm 5 mps 767 mmHg 79%
    23:00 -1°C° 0.2 mm 5 mps 767 mmHg 81%

    Pasado mañana, 17 Noviembre, Sábado

    Tiempo Temperatura Precipitaciones Viento Presión Humedad
    00:00 -1°C° 0.2 mm 5 mps 767 mmHg 82%
    01:00 -1°C° 0.2 mm 5 mps 767 mmHg 83%
    02:00 -2°C° 0.2 mm 6 mps 767 mmHg 84%
    03:00 -2°C° 0.5 mm 6 mps 767 mmHg 85%
    04:00 -2°C° 0.5 mm 6 mps 767 mmHg 86%
    05:00 -2°C° 0.5 mm 6 mps 767 mmHg 88%
    06:00 -2°C° 0.7 mm 6 mps 767 mmHg 88%
    07:00 -2°C° 0.7 mm 6 mps 767 mmHg 89%
    08:00 -2°C° 0.7 mm 6 mps 767 mmHg 90%
    09:00 -2°C° 0.4 mm 7 mps 767 mmHg 90%
    10:00 -1°C° 0.4 mm 7 mps 767 mmHg 90%
    11:00 -1°C° 0.4 mm 7 mps 767 mmHg 90%
    12:00 -1°C° 0.2 mm 7 mps 767 mmHg 88%
    13:00 -1°C° 0.2 mm 7 mps 767 mmHg 87%
    14:00 +1°C° 0.2 mm 6 mps 767 mmHg 86%
    15:00 -1°C° 0.1 mm 6 mps 767 mmHg 85%
    16:00 -1°C° 0.1 mm 6 mps 767 mmHg 85%
    17:00 -1°C° 0.1 mm 6 mps 767 mmHg 85%
    18:00 -1°C° 0 mm 6 mps 767 mmHg 84%
    19:00 -1°C° 0 mm 7 mps 767 mmHg 84%
    20:00 -1°C° 0 mm 7 mps 767 mmHg 84%
    21:00 -1°C° 0 mm 6 mps 767 mmHg 84%
    22:00 -1°C° 0 mm 6 mps 767 mmHg 83%
    23:00 -2°C° 0 mm 6 mps 767 mmHg 82%

    18 Noviembre, Domingo

    Tiempo Temperatura Precipitaciones Viento Presión Humedad
    00:00 -1°C° 0 mm 5 mps 767 mmHg 82%
    01:00 -1°C° 0 mm 5 mps 767 mmHg 82%
    02:00 -1°C° 0 mm 5 mps 767 mmHg 82%
    03:00 -1°C° 0 mm 4 mps 766 mmHg 82%
    04:00 -1°C° 0 mm 4 mps 766 mmHg 83%
    05:00 -2°C° 0 mm 4 mps 766 mmHg 83%
    06:00 -1°C° 0 mm 3 mps 765 mmHg 83%
    07:00 -1°C° 0 mm 3 mps 765 mmHg 84%
    08:00 -1°C° 0 mm 3 mps 765 mmHg 84%
    09:00 +1°C° 0 mm 2 mps 765 mmHg 80%
    10:00 +2°C° 0 mm 2 mps 765 mmHg 77%
    11:00 +3°C° 0 mm 2 mps 765 mmHg 73%
    12:00 +4°C° 0 mm 2 mps 764 mmHg 71%
    13:00 +4°C° 0 mm 2 mps 763 mmHg 69%
    14:00 +5°C° 0 mm 2 mps 763 mmHg 66%
    15:00 +5°C° 0 mm 2 mps 762 mmHg 68%
    16:00 +5°C° 0 mm 1 mps 762 mmHg 70%
    17:00 +5°C° 0 mm 1 mps 761 mmHg 73%
    18:00 +5°C° 0 mm 1 mps 761 mmHg 73%
    19:00 +5°C° 0 mm 1 mps 761 mmHg 74%
    20:00 +4°C° 0 mm 1 mps 761 mmHg 74%
    21:00 +4°C° 0 mm 1 mps 760 mmHg 75%
    22:00 +3°C° 0 mm 2 mps 760 mmHg 75%
    23:00 +3°C° 0 mm 2 mps 760 mmHg 76%

    19 Noviembre, Lunes

    Tiempo Temperatura Precipitaciones Viento Presión Humedad
    00:00 +3°C° 0 mm 2 mps 759 mmHg 77%
    01:00 +3°C° 0 mm 2 mps 759 mmHg 78%
    02:00 +3°C° 0 mm 2 mps 759 mmHg 79%
    03:00 +2°C° 0.1 mm 3 mps 758 mmHg 81%
    04:00 +2°C° 0.1 mm 3 mps 758 mmHg 82%
    05:00 +2°C° 0.1 mm 3 mps 758 mmHg 83%
    06:00 +3°C° 0.1 mm 3 mps 758 mmHg 84%
    07:00 +3°C° 0.1 mm 4 mps 758 mmHg 85%
    08:00 +3°C° 0.1 mm 4 mps 758 mmHg 86%
    09:00 +4°C° 0.1 mm 4 mps 758 mmHg 83%
    10:00 +5°C° 0.1 mm 5 mps 758 mmHg 80%
    11:00 +6°C° 0.1 mm 5 mps 758 mmHg 77%
    12:00 +7°C° 0.1 mm 5 mps 757 mmHg 77%
    13:00 +7°C° 0.1 mm 5 mps 757 mmHg 76%
    14:00 +8°C° 0.1 mm 5 mps 756 mmHg 75%
    15:00 +8°C° 0 mm 5 mps 756 mmHg 78%
    16:00 +7°C° 0 mm 5 mps 756 mmHg 81%
    17:00 +7°C° 0 mm 4 mps 756 mmHg 84%
    18:00 +7°C° 0.1 mm 4 mps 756 mmHg 86%
    19:00 +7°C° 0.1 mm 4 mps 756 mmHg 88%
    20:00 +7°C° 0.1 mm 4 mps 757 mmHg 90%
    21:00 +8°C° 0.2 mm 3 mps 757 mmHg 91%
    22:00 +8°C° 0.2 mm 3 mps 757 mmHg 93%
    23:00 +8°C° 0.2 mm 2 mps 757 mmHg 94%

    20 Noviembre, Martes

    Tiempo Temperatura Precipitaciones Viento Presión Humedad
    00:00 +8°C° 0.1 mm 2 mps 757 mmHg 94%
    01:00 +8°C° 0.1 mm 2 mps 757 mmHg 94%
    02:00 +7°C° 0.1 mm 2 mps 757 mmHg 94%
    03:00 +7°C° 0 mm 2 mps 757 mmHg 94%
    04:00 +8°C° 0 mm 2 mps 757 mmHg 94%
    05:00 +8°C° 0 mm 2 mps 757 mmHg 94%
    06:00 +8°C° 0 mm 2 mps 757 mmHg 94%
    07:00 +8°C° 0 mm 2 mps 757 mmHg 94%
    08:00 +8°C° 0 mm 2 mps 757 mmHg 95%
    09:00 +9°C° 0 mm 3 mps 758 mmHg 91%
    10:00 +11°C° 0 mm 3 mps 758 mmHg 87%
    11:00 +12°C° 0 mm 4 mps 758 mmHg 84%
    12:00 +12°C° 0 mm 4 mps 757 mmHg 83%
    13:00 +13°C° 0 mm 4 mps 757 mmHg 83%
    14:00 +13°C° 0 mm 4 mps 756 mmHg 83%
    15:00 +13°C° 0.1 mm 4 mps 756 mmHg 86%
    16:00 +13°C° 0.1 mm 4 mps 756 mmHg 89%
    17:00 +13°C° 0.1 mm 4 mps 756 mmHg 92%
    18:00 +13°C° 0.4 mm 4 mps 756 mmHg 93%
    19:00 +13°C° 0.4 mm 5 mps 756 mmHg 93%
    20:00 +13°C° 0.4 mm 5 mps 755 mmHg 93%
    21:00 +13°C° 0.3 mm 5 mps 755 mmHg 92%
    22:00 +14°C° 0.3 mm 5 mps 755 mmHg 91%
    23:00 +14°C° 0.3 mm 5 mps 754 mmHg 90%
    Mostrar más